Regional Weather Roundup
Issued by NWS

Home | Current Version | Previous Version | Text Only | Print | Product List | Glossary Off
Versions: 1 2 3 4 5 6 7 8 9 10 11 12 13 14 15 16 17 18 19 20 21 22 23 24 25 26 27 28 29 30 31 32 33 34 35 36 37 38 39 40 41 42 43 44 45 46 47 48 49 50

477
ASUS45 KPSR 280610
RWRAZ

ARIZONA HOURLY REGIONAL WEATHER ROUNDUP
NATIONAL WEATHER SERVICE PHOENIX AZ
1100 PM MST WED JUL 27 2016

NOTE: FAIR INDICATES FEW OR NO CLOUDS BELOW 12,000 FEET WITH NO
SIGNIFICANT WEATHER AND/OR OBSTRUCTIONS TO VISIBILITY.

AZZ001>003-036-280700-
NORTHWEST ARIZONA

CITY           SKY/WX    TMP DP  RH WIND       PRES   REMARKS
BULLHEAD CITY  CLEAR    102  52  18 E7        29.71F HX 100
KINGMAN        CLEAR     81  47  30 VRB3      29.98S
6HR MIN TEMP:  81; 6HR MAX TEMP:  96;

$$

AZZ004>008-015-016-018-280700-
NORTH CENTRAL ARIZONA

CITY           SKY/WX    TMP DP  RH WIND       PRES   REMARKS
GRAND CANYON   CLEAR     64  42  44 CALM      30.27F
6HR MIN TEMP:  63; 6HR MAX TEMP:  95;

WILLIAMS       CLEAR     64  50  59 S5        30.35S
PRESCOTT       PTCLDY    70  54  56 S6        30.13S
6HR MIN TEMP:  70; 6HR MAX TEMP:  86;

FLAGSTAFF      PTCLDY    73  44  35 CALM      30.30R
6HR MIN TEMP:  72; 6HR MAX TEMP:  89;

PAYSON         PTCLDY    82  46  28 CALM      30.15R
PAGE           CLEAR     89  30  12 SW7       30.00S
6HR MIN TEMP:  89; 6HR MAX TEMP: 106;

$$

AZZ009>014-017-280700-
NORTHEAST ARIZONA

CITY           SKY/WX    TMP DP  RH WIND       PRES   REMARKS
WINSLOW        CLEAR     79  44  28 W5        30.09R
6HR MIN TEMP:  77; 6HR MAX TEMP: 101;

SAINT JOHNS    CLEAR     69  38  32 SW5       30.15R
6HR MIN TEMP:  68; 6HR MAX TEMP:  97;

WINDOW ROCK    CLEAR     67  36  31 CALM      30.25S
6HR MIN TEMP:  64; 6HR MAX TEMP:  92;

SHOW LOW       PTCLDY    72  48  43 S14       30.26R
$$

AZZ023-280700-
GREATER PHOENIX AREA

CITY           SKY/WX    TMP DP  RH WIND       PRES   REMARKS
PHOENIX        PTCLDY   102  58  23 S7        29.76R HX 102
6HR MIN TEMP: 102; 6HR MAX TEMP: 112;

BUCKEYE        CLEAR     99  55  23 SW5       29.77R
LUKE AFB       CLEAR    101  59  25 W6        29.73R HX 101
6HR MIN TEMP: 101; 6HR MAX TEMP: 113;

DEER VALLEY    CLEAR    100  54  21 SE8       29.77R
6HR MIN TEMP: 100; 6HR MAX TEMP: 112;

SCOTTSDALE     CLEAR     97  57  26 SE14G21   29.81R
6HR MIN TEMP:  97; 6HR MAX TEMP: 111;

MESA-GATEWAY   PTCLDY    91  61  35 SE21      29.83R
$$

AZZ027-028-280700-
SOUTHWEST MARICOPA COUNTY AND PINAL COUNTY

CITY           SKY/WX    TMP DP  RH WIND       PRES   REMARKS
CASA GRANDE    MOCLDY    88  64  45 S13       29.86R
6HR MIN TEMP:  88; 6HR MAX TEMP: 109;

GILA BEND      PTCLDY   101  55  21 S9        29.76R
6HR MIN TEMP: 101; 6HR MAX TEMP: 112;

$$

AZZ503-504-507>509-280700-
SOUTHEAST ARIZONA

CITY           SKY/WX    TMP DP  RH WIND       PRES   REMARKS
TUCSON         CLOUDY    80  66  62 NE10      29.96F
6HR MIN TEMP:  76; 6HR MAX TEMP: 105; 6HR PCP:  0.12;

DAVIS-MONTHAN  MOCLDY    78  68  71 VRB6      29.95R
6HR MIN TEMP:  75; 6HR MAX TEMP: 103; 6HR PCP:  0.14;

NOGALES        CLOUDY    70  67  90 SE5       30.09R
SIERRA VISTA   CLOUDY    73  62  70 SW16      30.09F
6HR MIN TEMP:  71; 6HR MAX TEMP:  78; 6HR PCP:  0.01;

DOUGLAS        CLOUDY    70  66  87 E6        30.08F
6HR MIN TEMP:  70; 6HR MAX TEMP:  90; 6HR PCP:  0.05;

SAFFORD        CLOUDY    78  62  57 N3        30.00R
6HR MIN TEMP:  78; 6HR MAX TEMP:  90;

$$

AZZ020-021-025-026-031-280700-
SOUTHWEST ARIZONA

CITY           SKY/WX    TMP DP  RH WIND       PRES   REMARKS
YUMA           MOCLDY    96  64  34 S7        29.71S
6HR MIN TEMP:  96; 6HR MAX TEMP: 112;

$$

CAZ031-033-041-043-047-048-061-280700-
SOUTHERN CALIFORNIA

CITY           SKY/WX    TMP DP  RH WIND       PRES   REMARKS
DOWNTOWN L.A.  CLEAR     71  65  81 CALM      29.89S
6HR MIN TEMP:  71; 6HR MAX TEMP:  83;

L.A. AIRPORT   PTCLDY    71  65  81 SW7       29.90S
6HR MIN TEMP:  70; 6HR MAX TEMP:  77;

SAN DIEGO      PTCLDY    71  65  81 W3        29.91F
6HR MIN TEMP:  71; 6HR MAX TEMP:  79;

BURBANK        CLEAR     75  62  64 SE8       29.89S
6HR MIN TEMP:  75; 6HR MAX TEMP:  92;

ONTARIO        CLEAR     79  51  37 W8        29.91S
6HR MIN TEMP:  79; 6HR MAX TEMP:  96;

RIVERSIDE      CLEAR     81  49  32 CALM      29.91S
6HR MIN TEMP:  81; 6HR MAX TEMP:  96;

PALM SPRINGS   CLEAR     99  51  19 NW16      29.74S
6HR MIN TEMP:  99; 6HR MAX TEMP: 115;

EL CENTRO NAS  CLEAR     96  50  20 W12       29.72R
6HR MIN TEMP:  96; 6HR MAX TEMP: 115;

IMPERIAL       CLEAR     96  56  26 W10       29.69S
6HR MIN TEMP:  96; 6HR MAX TEMP: 115;

BLYTHE         CLEAR    105  57  20 SW14      29.69F HX 104
6HR MIN TEMP: 105; 6HR MAX TEMP: 115;

NEEDLES        MOCLDY   106  56  19 CALM      29.72S HX 105
6HR MIN TEMP: 106; 6HR MAX TEMP: 117;

$$

NVZ020-UTZ003-280700-
SOUTHERN NEVADA-UTAH

CITY           SKY/WX    TMP DP  RH WIND       PRES   REMARKS
LAS VEGAS      PTCLDY   102  44  14 S6        29.78F
6HR MIN TEMP: 101; 6HR MAX TEMP: 113;

SALT LAKE CITY CLEAR     83  32  16 SE7       30.02R
6HR MIN TEMP:  83; 6HR MAX TEMP: 100;

$$

NMZ009-TXZ055-280700-
NEW MEXICO-WEST TEXAS

CITY           SKY/WX    TMP DP  RH WIND       PRES   REMARKS
ALBUQUERQUE    PTCLDY    79  49  34 S8        30.20R
6HR MIN TEMP:  79; 6HR MAX TEMP:  91;

EL PASO        PTCLDY    81  61  50 NE3       30.07R
6HR MIN TEMP:  80; 6HR MAX TEMP:  92;

$$


........................KEY........................
SKY/WX - SKY CONDITION/WEATHER
TMP    - TEMPERATURE IN FAHRENHEIT
DP     - DEW POINT IN FAHRENHEIT
RH     - RELATIVE HUMIDITY IN PERCENT
WIND   - DIRECTION AND SPEED IN MILES PER HOUR (MPH)
VRB    - VARIABLE WIND DIRECTION
PRES   - MEAN SEA LEVEL PRESSURE IN INCHES OF MERCURY
         F - FALLING PRESSURE   R - RISING PRESSURE
         S - STEADY PRESSURE
VSB    - VISIBILITY IN MILES
HX     - HEAT INDEX IN FAHRENHEIT
WCI    - WIND CHILL INDEX IN FAHRENHEIT
TC     - TEMPERATURE IN CELSIUS WHICH IS ALSO KNOWN AS
         TEMPERATURE IN CENTIGRADE
AFB    - AIR FORCE BASE
         LUKE AFB IS LUKE AIR FORCE BASE
         DAVIS-MONTHAN IS DAVIS-MONTHAN AIR FORCE BASE
NAS    - NAVAL AIR STATION
         EL CENTRO NAS IS EL CENTRO NAVAL AIR STATION
N/A    - NOT AVAILABLE





USA.gov is the U.S. government's official web portal to all federal, state and local government web resources and services.